Volver al catálogo

FREGAT DEB

LostUNKNOWN
NORAD 45975·DEBRIS·🇷🇺 Russia

Lanzado Jul 18, 2011 desde Baikonur Cosmodrome

Loading…

Próximos Pases (próximas 24 horas)

TLE

ObsoletoSource: Space-Track

Época: Sep 14, 2020, 23:23 UTC

1 45975U 11037GG  20258.97487394  .00543463  00000-0  24049+0 0  9993
2 45975  51.5433 158.3633 2010925 204.1358 145.0771 10.85930530  5783

Sigue FREGAT DEB en tiempo real con AllMySat

Download on the App Store